Retour au catalogue

BREEZE-M DEB

LostHEO
NORAD 48537·DEBRIS·🇷🇺 Russia

Lancé Mar 14, 2008 depuis Baikonur Cosmodrome

Loading…

Prochains Passages (prochaines 24 heures)

TLE

PériméSource: Space-Track

Époque: Nov 3, 2022, 05:05 UTC

1 48537U 08011EC  22307.21234510  .00001356  00000-0  70806-1 0  9996
2 48537  48.7507 153.5288 6338255 145.6827 279.5562  3.05397425 81617

Suivez BREEZE-M DEB en temps réel avec AllMySat

Download on the App Store